Preston, Minnesota, United States (55965)
Lat: 43.67N, Lon: 92.08W
Wx Zone: MNZ095
Local Info
Past Weather Observations for Today

NOTE: This archive is for the closest National Weather Service station to Preston. Information may differ from the station used for current weather conditions.

Click here for Long-term Archive

Time Weather Temperature Dewpoint Humidity Pressure Winds Precip Visibility
10:54
Overcast
Light Rain
57°F / 14°C 55°F / 13°C 94% 30.04 in
(1017 mb)
SE 10.4 mph
(SE 17 kph)
0.04 in
(1.02 mm)
3SM
10:34
Overcast
Light Rain
57°F / 14°C 55°F / 13°C 94% 30.06 in
(1018 mb)
SE 9.2 mph
(SE 15 kph)
0.02 in
(0.51 mm)
4SM
10:14
Overcast
Light Rain
57°F / 14°C 55°F / 13°C 94% 30.06 in
(1018 mb)
SE 9.2 mph
(SE 15 kph)
0.01 in
(0.25 mm)
7SM
09:54
Overcast
Light Rain
57°F / 14°C 55°F / 13°C 94% 30.06 in
(1018 mb)
SE 9.2 mph
(SE 15 kph)
0.03 in
(0.76 mm)
7SM
09:35
Overcast
Light Rain
57°F / 14°C 54°F / 12°C 88% 30.06 in
(1018 mb)
SE 10.4 mph
(SE 17 kph)
0.02 in
(0.51 mm)
7SM
09:14
Overcast
Light Rain
57°F / 14°C 54°F / 12°C 88% 30.06 in
(1018 mb)
SE 8.1 mph
(SE 13 kph)
0.01 in
(0.25 mm)
5SM
08:55
Overcast
Light Rain
57°F / 14°C 54°F / 12°C 88% 30.06 in
(1018 mb)
SE 10.4 mph
(SE 17 kph)
0.06 in
(1.52 mm)
5SM
08:34
Overcast
Light Rain
57°F / 14°C 54°F / 12°C 88% 30.09 in
(1019 mb)
SE 10.4 mph
(SE 17 kph)
0.04 in
(1.02 mm)
5SM
08:14
Overcast
Light Rain
57°F / 14°C 54°F / 12°C 88% 30.09 in
(1019 mb)
SSE 9.2 mph
(SSE 15 kph)
0.02 in
(0.51 mm)
5SM
07:55
Overcast
Drizzle
59°F / 15°C 54°F / 12°C 82% 30.09 in
(1019 mb)
SE 8.1 mph
(SE 13 kph)
0.01 in
(0.25 mm)
7SM
07:35
Overcast
Drizzle
59°F / 15°C 54°F / 12°C 82% 30.09 in
(1019 mb)
SE 6.9 mph
(SE 11 kph)
0.01 in
(0.25 mm)
10SM
07:14
Overcast
Light Rain
59°F / 15°C 54°F / 12°C 82% 30.09 in
(1019 mb)
SE 5.8 mph
(SE 9 kph)
- 7SM
06:55
Overcast
Rain
59°F / 15°C 52°F / 11°C 77% 30.09 in
(1019 mb)
SSE 4.6 mph
(SSE 7 kph)
0.04 in
(1.02 mm)
4SM
06:34
Mostly Cloudy
61°F / 16°C 50°F / 10°C 68% 30.09 in
(1019 mb)
SE 5.8 mph
(SE 9 kph)
- 10SM
06:14
Overcast
61°F / 16°C 50°F / 10°C 68% 30.09 in
(1019 mb)
SSE 4.6 mph
(SSE 7 kph)
- 10SM
05:55
Overcast
61°F / 16°C 50°F / 10°C 68% 30.09 in
(1019 mb)
SSE 3.5 mph
(SSE 6 kph)
- 10SM
05:34
Overcast
61°F / 16°C 50°F / 10°C 68% 30.09 in
(1019 mb)
SSE 4.6 mph
(SSE 7 kph)
- 10SM
05:14
Overcast
61°F / 16°C 48°F / 9°C 63% 30.09 in
(1019 mb)
S 10.4 mph
(S 17 kph)
- 10SM
04:54
Partly Cloudy
63°F / 17°C 48°F / 9°C 59% 30.09 in
(1019 mb)
SSE 9.2 mph
(SSE 15 kph)
- 10SM
04:34
Clear
61°F / 16°C 48°F / 9°C 63% 30.09 in
(1019 mb)
SE 5.8 mph
(SE 9 kph)
- 10SM
04:15
Partly Cloudy
61°F / 16°C 48°F / 9°C 63% 30.09 in
(1019 mb)
SE 5.8 mph
(SE 9 kph)
- 10SM
03:54
Overcast
59°F / 15°C 50°F / 10°C 72% 30.09 in
(1019 mb)
SE 5.8 mph
(SE 9 kph)
- 10SM
03:34
Overcast
61°F / 16°C 50°F / 10°C 68% 30.09 in
(1019 mb)
SE 6.9 mph
(SE 11 kph)
- 10SM
03:15
Overcast
61°F / 16°C 50°F / 10°C 68% 30.12 in
(1020 mb)
SE 3.5 mph
(SE 6 kph)
- 10SM
02:54
Overcast
63°F / 17°C 48°F / 9°C 59% 30.15 in
(1021 mb)
Calm - 10SM
02:34
Overcast
63°F / 17°C 48°F / 9°C 59% 30.15 in
(1021 mb)
Calm - 10SM
02:15
Overcast
63°F / 17°C 48°F / 9°C 59% 30.15 in
(1021 mb)
Calm - 10SM
01:55
Overcast
61°F / 16°C 50°F / 10°C 68% 30.15 in
(1021 mb)
Calm - 10SM
01:34
Overcast
61°F / 16°C 48°F / 9°C 63% 30.15 in
(1021 mb)
SSE 3.5 mph
(SSE 6 kph)
- 10SM
01:14
Overcast
63°F / 17°C 48°F / 9°C 59% 30.15 in
(1021 mb)
Calm - 10SM
00:54
Overcast
63°F / 17°C 48°F / 9°C 59% 30.15 in
(1021 mb)
Calm - 10SM
00:35
Overcast
63°F / 17°C 48°F / 9°C 59% 30.15 in
(1021 mb)
Calm - 10SM
00:14
Overcast
63°F / 17°C 48°F / 9°C 59% 30.15 in
(1021 mb)
SE 3.5 mph
(SE 6 kph)
- 10SM
Time Weather Temperature Dewpoint Humidity Pressure Winds Precip Visibility


Weather for websites

WeatherForYou.com, LLC is not responsible for any damages or problems caused by this service. Current weather conditions are obtained from the closest station including government and personal stations which may have varying degrees of accuracy. Weather forecasts are derived from the NOAA NDFD. Like all things, this site belongs to Jesus Christ... He just trusts us to maintain it. If you have any questions or comments email webmaster@weatherforyou.com

Copyright © 2015, WeatherForYou.com LLC. All rights reserved.